Location: Sobotiste
(48.7170°N, 17.4000°E)
Time: 01:37:00
(UTC+01:00)

N. Korean satellite - Visible Passes

Search period start: 23 January 2019 00:00
Search period end: 02 February 2019 00:00
Orbit: 458 x 509 km, 97.2° (Epoch: 21 January)

Date Brightness Start Highest point End Pass type
(mag) Time Alt. Az. Time Alt. Az. Time Alt. Az.
23 Jan 6.7 06:12:49 10° NNE 06:16:33 85° ESE 06:20:13 10° SSW visible
23 Jan 10.1 18:27:34 10° WSW 18:29:21 13° W 18:31:10 10° WNW visible
24 Jan 8.0 05:48:17 10° NNE 05:51:51 42° E 05:55:19 10° S visible
24 Jan 9.3 18:01:27 10° SSW 18:04:28 23° W 18:07:31 10° NW visible
25 Jan 9.2 05:24:01 10° NE 05:27:02 23° E 05:29:58 10° SSE visible
25 Jan 8.0 17:36:07 10° S 17:39:39 43° W 17:43:15 10° NNW visible
26 Jan 10.1 05:00:26 10° ENE 05:02:07 13° E 05:03:48 10° ESE visible
26 Jan 6.7 06:32:18 10° N 06:35:57 56° WNW 06:39:31 10° SSW visible
26 Jan 6.7 17:11:14 10° SSE 17:14:56 85° WSW 17:18:42 10° NNW visible
27 Jan 6.8 06:07:35 10° NNE 06:11:18 74° ESE 06:14:55 10° S visible
27 Jan 10.0 18:21:52 10° SW 18:24:02 15° W 18:26:14 10° NW visible
28 Jan 8.2 05:43:06 10° NNE 05:46:33 37° E 05:49:55 10° SSE visible
28 Jan 9.1 17:55:59 10° SSW 17:59:10 26° W 18:02:23 10° NW visible
29 Jan 9.4 05:18:56 10° NE 05:21:43 20° E 05:24:27 10° SE visible
29 Jan 7.3 06:51:54 10° N 06:55:15 33° WNW 06:58:32 10° SW visible
29 Jan 7.8 17:30:45 10° S 17:34:22 50° W 17:38:02 10° NNW visible
30 Jan 10.3 04:55:44 10° ENE 04:56:47 11° E 04:57:50 10° ESE visible
30 Jan 6.5 06:27:02 10° N 06:30:40 64° WNW 06:34:13 10° SSW visible
31 Jan 7.1 06:02:21 10° NNE 06:05:59 64° E 06:09:33 10° S visible
31 Jan 9.9 18:16:14 10° SW 18:18:42 17° W 18:21:11 10° NW visible
01 Feb 8.5 05:37:54 10° NNE 05:41:13 32° E 05:44:28 10° SSE visible
01 Feb 8.9 17:50:32 10° SSW 17:53:50 30° W 17:57:11 10° NNW visible
